Weather History for New Orleans Lakefront, LA

Change the Weather History Date:

Sunday, July 18, 2010

  Actual Average Record
Temperature  
Mean Temperature 82 °F 83 °F  
Max Temperature 88 °F 91 °F 97 °F (2000)
Min Temperature 75 °F 75 °F 66 °F (1967)
Degree Days  
Heating Degree Days 0 0  
Month to date heating degree days 0 0  
Since 1 June heating degree days 0 0  
Since 1 July heating degree days 0 0  
Cooling Degree Days 17 18  
Month to date cooling degree days 337 324  
Year to date cooling degree days 1566 1438  
Since 1 June cooling degree days 918 819  
Growing Degree Days 32 (Base 50)    
Moisture  
Dew Point 75 °F    
Average Humidity 81    
Maximum Humidity 94    
Minimum Humidity 68    
Precipitation  
Precipitation 0.64 in 0.18 in 1.60 in (1991)
Month to date precipitation 5.46 3.64  
Year to date precipitation 34.99 35.94  
Snow  
Snow 0.00 in - - ()
Month to date snowfall 0.0  
Since 1 June snowfall 0.0  
Since 1 July snowfall 0.0  
Snow Depth 0.00 in    
Sea Level Pressure  
Sea Level Pressure 30.04 in    
Wind  
Wind Speed 4 mph (South)    
Max Wind Speed 20 mph    
Max Gust Speed 24 mph    
Visibility 10 miles    
Events Rain , Thunderstorm    
T = Trace of Precipitation, MM = Missing Value Source: NWS Daily Summary

Daily Weather History Graph

Daily Weather History Graph

Search for Another Location

Airport:

Trip Planner

Search our weather history database for the weather conditions in past years. The results will help you decide how hot, cold, wet, or windy it might be!

Date:

Astronomy

Jul. 18, 2010 Rise Set
Actual Time 6:10 AM CDT 8:01 PM CDT
Civil Twilight 5:44 AM CDT 8:28 PM CDT
Nautical Twilight 5:11 AM CDT 9:00 PM CDT
Astronomical Twilight 4:37 AM CDT 9:34 PM CDT
Moon 1:41 PM CDT (7/18) 12:00 AM CDT (7/18)
Length of Visible Light 14h 44m
Length of Day
13h 50m
First Quarter, 53% of the Moon is Illuminated
Jul 18
First Quarter
Jul 25
Full
Aug 3
Last Quarter
Aug 9
New
Aug 16
First Quarter

Hourly Weather History & Observations

Time (CDT) Temp. Heat Index Dew Point Humidity Pressure Visibility Wind Dir Wind Speed Gust Speed Precip Events Conditions
12:53 AM 84.0 °F 92.6 °F 75.9 °F 76% 30.02 in 10.0 mi SSE 8.1 mph - N/A   Clear
1:53 AM 82.0 °F 89.4 °F 75.9 °F 82% 30.01 in 10.0 mi SSE 8.1 mph - N/A   Clear
2:53 AM 80.1 °F 83.8 °F 72.0 °F 76% 30.00 in 10.0 mi South 8.1 mph - N/A   Clear
3:53 AM 80.1 °F 85.1 °F 75.0 °F 85% 30.01 in 10.0 mi SSW 8.1 mph - 0.01 in   Mostly Cloudy
4:53 AM 78.1 °F - 73.0 °F 84% 30.02 in 9.0 mi Calm Calm - 0.05 in Rain Light Rain
5:53 AM 80.1 °F 85.4 °F 75.9 °F 87% 30.03 in 10.0 mi Calm Calm - 0.00 in   Clear
6:53 AM 82.0 °F 90.2 °F 77.0 °F 85% 30.03 in 10.0 mi SE 5.8 mph - N/A   Clear
7:53 AM 84.0 °F 93.7 °F 77.0 °F 79% 30.05 in 10.0 mi SE 4.6 mph - N/A   Partly Cloudy
8:53 AM 86.0 °F 96.9 °F 77.0 °F 74% 30.06 in 10.0 mi South 8.1 mph - N/A   Partly Cloudy
9:53 AM 78.1 °F - 73.9 °F 87% 30.06 in 10.0 mi SSW 10.4 mph - 0.05 in   Mostly Cloudy
10:53 AM 81.0 °F 86.2 °F 73.9 °F 79% 30.08 in 10.0 mi West 6.9 mph - 0.01 in   Partly Cloudy
11:53 AM 84.0 °F 91.9 °F 75.0 °F 74% 30.07 in 10.0 mi Calm Calm - 0.00 in   Scattered Clouds
12:53 PM 84.0 °F 92.6 °F 75.9 °F 76% 30.06 in 10.0 mi West 6.9 mph - N/A   Partly Cloudy
1:53 PM 84.9 °F 94.1 °F 75.9 °F 74% 30.04 in 10.0 mi NNW 4.6 mph - N/A   Scattered Clouds
2:53 PM 84.9 °F 94.1 °F 75.9 °F 74% 30.03 in 10.0 mi NE 6.9 mph - N/A   Mostly Cloudy
3:00 PM 84.2 °F 92.3 °F 75.2 °F 74% 30.04 in 10.0 mi NNE 5.8 mph - N/A   Mostly Cloudy
3:53 PM 81.0 °F 85.8 °F 73.0 °F 77% 30.04 in 10.0 mi SE 5.8 mph - 0.10 in   Scattered Clouds
4:53 PM 82.0 °F 89.4 °F 75.9 °F 82% 30.04 in 10.0 mi West 15.0 mph 19.6 mph N/A Thunderstorm Thunderstorm
5:13 PM 80.6 °F 85.4 °F 73.4 °F 79% 30.05 in 10.0 mi Calm Calm - N/A   Scattered Clouds
5:53 PM 82.0 °F 89.4 °F 75.9 °F 82% 30.03 in 10.0 mi South 3.5 mph - 0.00 in Rain Light Rain
6:53 PM 82.0 °F 88.6 °F 75.0 °F 79% 30.03 in 10.0 mi South 6.9 mph - 0.00 in   Clear
7:53 PM 81.0 °F 87.3 °F 75.9 °F 85% 30.02 in 10.0 mi South 4.6 mph - N/A   Clear
8:53 PM 81.0 °F 87.3 °F 75.9 °F 85% 30.02 in 10.0 mi SSE 4.6 mph - N/A   Clear
9:53 PM 81.0 °F 86.7 °F 75.0 °F 82% 30.03 in 10.0 mi South 5.8 mph - N/A   Clear
10:53 PM 81.0 °F 87.3 °F 75.9 °F 85% 30.04 in 10.0 mi South 4.6 mph - N/A   Clear
11:53 PM 81.0 °F 87.9 °F 77.0 °F 88% 30.03 in 10.0 mi SE 4.6 mph - N/A   Clear